Find Starlink 6166

NORAD ID: 56383 Int'l Des: 2023-061 Owner: SPXS Country: US Constellation: starlink operational
LEOCIRCULAR

現在のビュー

3D地球を読み込み中...

Starlink 6166について

説明を読み込み中...

次回通過

Passes for default location (London). Set your location on the main map for personalized predictions.

高度履歴

Loading altitude history...

軌道要素

1 56383U 23061K 26145.23194205 .00001005 00000-0 46037-4 0 9991
2 56383 43.0023 125.8122 0001355 262.4741 97.5957 15.27581672168450
Epoch: May 25, 2026 • Age: 3 hours

現在のステータス

高度 487.0 km
速度 7.63 km/s
衛星直下点 42.42°N, 176.83°W
打ち上げ日 May 4, 2023
運用期間 3 years
タイプ internet

技術仕様

分類 Payload
質量 305.00 kg
乾燥質量 290.00 kg
総質量 305.00 kg
長さ 0.20 m
直径 2.80 m
スパン 9.00 m
形状 Box + pan
製造者 SPXS
バスタイプ Starlink
フェーズステータス In Orbit
所有者/国 SPXS/US

Most Searched